Tracking 30922 objects as of 2-Jul-2025
HD Live streaming from Space Station
objects crossing your sky now

STARLINK-5601

Track STARLINK-5601 now!
10-day predictions
STARLINK-5601 is classified as:


NORAD ID: 55744
Int'l Code: 2023-028D
Perigee: 574.8 km
Apogee: 582.0 km
Inclination: 70.0 °
Period: 96.1 minutes
Semi major axis: 6949 km
RCS: Unknown
Launch date: March 3, 2023
Source: United States (US)
Launch site: AIR FORCE WESTERN TEST RANGE (AFWTR)
Your satellite tracking list
OBJECT H
Track 1 satellite(s)




NASA's NSSDC Master Catalog

Two Line Element Set (TLE):
1 55744U 23028D   25182.85224398  .00031012  00000-0  25778-2 0  9997
2 55744  69.9993 157.0454 0005192 254.3081 105.7505 14.98586721128463
Source of the keplerian elements: AFSPC